Regional Weather Roundup
Issued by NWS

Home | Current Version | Previous Version | Graphics & Text | Print | Product List | Glossary On
Versions: 1 2 3 4 5 6 7 8 9 10 11 12 13 14 15 16 17 18 19 20 21 22 23 24 25 26 27 28 29 30 31 32 33 34 35 36 37 38 39 40 41 42 43 44 45 46 47 48 49
000
ASUS45 KCYS 051310
RWRWY

WYOMING REGIONAL WEATHER ROUNDUP
NATIONAL WEATHER SERVICE CHEYENNE WY
600 AM MST FRI FEB 05 2016

NOTE:  "FAIR" INDICATES FEW OR NO CLOUDS BELOW 12,000 FEET
WITH NO SIGNIFICANT WEATHER AND/OR OBSTRUCTIONS TO VISIBILITY.

WYZ001-051400-
YELLOWSTONE NATIONAL PARK

CITY           SKY/WX    TMP DP  RH WIND       PRES   REMARKS
LK YELLOWSTONE   N/A      2  -2  83 NW3       30.36R
W YELLOWSTONE  NOT AVBL

$$
WYZ002>013-054>058-071-098>099-051400-
NORTHERN WYOMING

CITY           SKY/WX    TMP DP  RH WIND       PRES   REMARKS
JACKSON        FAIR       1   0  92 CALM      30.41R
CODY           FAIR      30   9  40 W13G22    30.26R WCI  20
GREYBULL       FAIR      11   8  88 SW3       30.33R
WORLAND        FAIR      10   5  80 S3        30.32R
SHERIDAN       CLOUDY    32  14  47 W7        30.23R WCI  26
BUFFALO        CLOUDY    31  14  49 NW14G25   30.21R WCI  21
GILLETTE       CLOUDY    28  20  71 NW15      30.21R WCI  16
HULETT         CLOUDY    32  27  80 NW12G17   30.19R WCI  23
NEWCASTLE      LGT SNOW  28  28 100 NW17G23   30.17S WCI  16

$$
WYZ014>020-022>026-101>103-051400-
CENTRAL WYOMING

CITY           SKY/WX    TMP DP  RH WIND       PRES   REMARKS
BIG PINEY      FAIR      12   6  77 N16       30.35R WCI  -5
PINEDALE       FAIR      12   7  79 W25       30.32F WCI  -8
DUBOIS         FAIR      19   9  63 W20G26    30.29R WCI   4
LANDER         FAIR      20   0  41 CALM      30.28R
RIVERTON       FAIR      11   1  64 S9        30.29R WCI  -2
CASPER         FAIR      16   6  65 SW18      30.26R WCI   0
DOUGLAS        FAIR      17   8  67 NW9       30.25R WCI   6

$$
WYZ021-027>030-104>119-051400-
SOUTHERN WYOMING

CITY           SKY/WX    TMP DP  RH WIND       PRES   REMARKS
EVANSTON       CLOUDY    18  14  84 SW12      30.41R WCI   5
FORT BRIDGER   CLOUDY    19  18  93 W18       30.42R WCI   4
ROCK SPRINGS   FAIR      13   9  84 SW18      30.35R WCI  -4
DIXON          FLURRIES  10   7  87 N5        30.39R WCI   2
RAWLINS        FAIR      11   5  77 SW23G29   30.29R WCI  -9
SARATOGA       CLOUDY    14   9  79 SW10      30.31R WCI   1
LARAMIE        FAIR      13   4  67 VRB3      30.21S
CHEYENNE       FAIR      20   8  60 NW15      30.21R WCI   6
TORRINGTON     FAIR      20  11  68 NW8       30.24R WCI  10
PINE BLUFFS    FAIR      21  12  68 NW17      30.23R WCI   7

$$



USA.gov is the U.S. government's official web portal to all federal, state and local government web resources and services.